GEFSSE_850_meantemp_030.txt.gz
Temperature
19 19 17 16 15 15 15 15 14 14 14 14 13 12 12 12 12 11 11 11 11 11 11 12 12 12 13 13 13 12 12 12 13 13 14 14 14 13 13 13 13 12 12
20 19 17 16 15 15 15 14 14 14 13 13 12 11 11 11 11 11 11 11 11 10 11 11 12 12 12 12 12 12 12 12 12 13 14 14 13 13 13 13 13 12 12
19 19 17 16 15 15 15 14 14 14 13 12 11 11 11 11 11 11 10 10 10 10 10 11 11 12 12 12 12 12 11 11 12 13 13 13 12 12 13 13 13 12 12
19 19 17 16 15 15 15 14 14 13 13 12 11 11 11 11 11 10 10 10 10 10 10 11 11 11 11 11 11 11 11 11 12 12 13 12 12 12 12 13 13 13 12
18 18 17 16 15 15 15 14 14 13 13 13 11 11 11 11 11 11 11 11 11 11 11 11 11 11 11 11 11 11 11 11 12 12 12 12 12 12 12 12 13 13 12
18 18 18 16 15 15 15 14 14 14 13 13 12 11 11 11 11 11 11 11 12 12 12 12 12 12 12 12 12 12 11 12 13 13 12 12 12 12 12 12 13 13 12
19 18 18 17 16 15 15 14 14 14 14 13 13 12 12 11 11 11 11 12 12 12 12 12 12 12 13 13 13 13 13 13 14 14 14 13 12 12 12 13 13 13 12
19 18 19 17 16 16 15 15 14 14 14 14 14 13 12 12 12 12 12 13 13 13 13 13 13 13 13 13 14 14 14 14 15 15 14 14 14 14 14 14 14 14 13
18 18 19 18 17 16 16 15 15 15 15 15 15 14 14 13 13 13 14 14 14 14 14 14 14 14 14 14 14 14 14 14 15 15 15 15 14 14 14 14 14 14 14
18 18 18 18 18 17 16 16 16 16 16 15 15 15 15 15 14 14 14 14 14 15 15 15 15 14 14 14 14 14 14 14 14 15 15 15 14 14 14 15 15 15 14
18 18 18 18 17 17 16 16 16 16 16 16 16 15 15 15 14 13 14 14 14 15 15 15 15 15 15 14 14 14 14 14 14 14 14 14 14 14 14 14 15 15 15
19 18 18 18 17 16 16 16 16 16 16 16 16 15 15 14 13 13 14 14 14 15 15 15 15 15 14 14 14 14 14 14 13 13 13 13 13 13 13 14 14 14 14
20 19 18 18 17 16 16 15 15 15 15 15 15 14 14 14 14 14 14 14 14 15 15 15 15 14 14 14 13 13 13 13 12 12 12 12 12 12 12 13 13 13 13
21 20 19 18 17 17 16 16 15 15 15 14 14 14 14 14 14 14 13 13 14 14 13 13 13 13 13 13 13 13 13 12 12 12 12 12 12 12 12 12 12 12 12
21 20 19 18 18 17 16 16 15 15 15 14 14 14 14 13 13 13 13 13 13 13 13 13 12 12 12 12 12 12 12 12 12 12 12 12 12 12 12 12 11 11 12
20 20 19 18 17 17 16 16 15 15 15 15 14 14 13 13 13 13 13 13 12 12 12 12 12 12 12 12 12 12 12 12 12 12 12 12 12 12 12 11 11 11 11
19 19 18 18 17 17 16 16 15 15 15 14 14 13 13 13 12 12 12 12 12 12 12 12 12 12 12 11 11 11 11 12 12 12 12 12 11 11 11 11 11 11 11
18 18 18 18 17 16 16 15 15 15 14 14 13 13 12 12 12 12 12 12 12 12 12 11 11 11 11 11 11 11 11 11 11 12 11 11 11 11 11 11 11 11 10
17 17 18 18 17 16 15 15 15 14 14 13 13 12 12 12 12 12 12 12 11 11 11 11 11 11 11 10 10 10 10 11 11 11 11 11 11 11 11 11 11 10 10
16 16 16 17 16 15 14 14 14 13 13 13 12 12 12 12 12 11 11 11 11 11 11 11 10 10 10 9 9 9 9 10 10 10 10 10 11 10 10 10 10 10 10
15 15 15 15 15 14 14 13 13 13 12 12 12 12 12 12 11 11 11 11 11 10 10 9 9 9 9 8 8 8 8 8 9 9 9 9 9 9 9 9 8 8 9
14 14 14 13 13 13 13 13 12 12 12 12 11 11 11 11 11 11 11 10 10 9 9 8 8 8 7 7 6 5 5 6 8 7 7 7 7 7 7 7 7 7 7
13 13 13 13 13 13 13 12 12 12 11 11 11 11 11 11 10 10 10 9 9 8 8 7 7 6 6 6 5 4 4 4 3 4 5 5 5 5 5 5 5 5 5
13 13 13 13 12 12 12 12 12 12 11 11 11 10 10 10 10 10 9 9 8 7 7 6 6 5 5 5 5 4 3 3 2 2 2 3 3 3 3 3 3 3 3
12 12 12 12 12 12 12 12 12 11 11 10 10 10 10 9 9 9 8 8 7 6 6 6 5 5 4 4 4 3 3 2 2 1 1 1 1 1 1 1 1 1 1
12 12 12 12 12 12 12 11 11 11 10 10 10 9 9 9 8 8 7 7 6 6 5 5 5 4 4 3 3 2 1 0 0 0 -0 -0 -0 -0 -0 -0 -0 -0 0

GEFSSE_850_meantemp_036.txt.gz
Temperature
18 17 16 15 15 15 14 14 14 14 14 14 13 13 13 12 12 11 11 11 11 11 12 12 13 13 13 13 13 13 13 13 13 14 14 14 14 13 13 13 13 13 13
19 18 16 15 15 15 14 14 14 14 14 14 12 12 12 11 11 11 11 11 11 11 11 12 13 13 13 13 13 12 13 13 13 14 14 13 13 13 13 13 12 12 12
19 18 17 15 15 15 15 14 14 14 14 13 11 11 11 11 11 11 11 11 11 11 12 12 13 13 13 13 13 12 13 13 13 13 13 13 13 13 13 13 12 12 12
19 18 17 16 15 15 15 14 14 15 14 13 12 11 11 11 11 11 12 12 13 13 13 13 13 13 13 13 13 12 13 13 13 13 13 13 13 13 13 12 12 12 12
19 18 17 16 15 15 15 15 15 15 15 14 13 12 11 11 12 12 13 13 14 14 14 14 14 13 13 13 13 12 12 13 13 13 13 13 13 13 12 11 11 12 12
19 18 17 16 15 15 15 15 15 15 15 14 13 13 12 12 12 13 13 14 14 14 14 14 14 13 13 13 13 13 13 13 13 13 13 13 13 13 12 11 11 12 12
19 18 17 17 16 15 15 15 15 15 15 15 14 13 13 12 13 13 13 14 14 14 14 14 14 14 14 13 13 13 14 14 14 14 14 14 13 13 12 11 11 11 12
19 18 18 17 16 16 15 15 15 15 16 15 15 14 13 13 13 14 14 14 14 14 14 14 14 14 14 14 14 14 14 14 14 14 14 14 14 14 13 13 12 12 12
19 19 18 18 17 16 16 16 16 16 16 16 16 15 14 14 14 14 14 14 14 14 14 14 14 14 14 14 14 14 14 14 14 14 14 14 14 13 13 13 13 13 13
19 18 18 18 18 17 17 16 16 16 16 16 16 15 15 14 14 14 14 14 14 14 14 14 14 14 14 14 14 14 14 13 13 13 13 13 13 13 13 13 13 12 12
18 18 18 18 18 17 17 17 16 16 16 16 15 15 15 14 14 14 14 14 14 14 14 14 14 14 14 13 13 13 13 13 13 13 13 12 12 12 12 12 12 12 12
19 19 18 18 18 17 17 17 16 16 16 15 15 15 14 14 14 14 14 14 14 13 13 13 13 13 13 13 13 13 13 12 12 12 12 12 12 12 12 12 12 12 12
20 19 19 18 18 17 17 17 16 16 15 15 14 14 14 14 14 14 13 13 13 13 13 13 13 13 13 13 13 12 12 12 12 12 12 12 12 12 12 12 12 12 12
20 20 19 19 18 18 17 17 16 15 15 15 14 14 14 14 13 13 13 13 13 13 13 12 12 12 12 12 12 12 12 12 12 12 12 12 12 11 12 12 12 11 12
20 20 19 19 18 18 17 16 16 15 15 14 14 14 13 13 13 13 13 12 12 12 12 12 12 12 12 12 12 12 12 12 12 12 12 12 12 11 11 11 11 11 11
21 20 19 19 18 17 17 16 15 15 15 14 14 14 13 13 13 12 12 12 12 12 12 12 12 12 12 12 12 12 12 12 12 12 12 12 11 11 11 10 10 10 10
20 20 19 18 18 17 16 15 15 15 14 14 14 13 13 13 12 12 12 12 12 12 12 12 12 12 12 12 12 12 12 12 11 11 11 11 10 10 10 10 10 10 10
20 20 19 18 17 16 16 15 15 14 14 14 14 13 13 13 12 12 12 12 12 12 12 11 11 11 11 11 11 11 11 11 11 10 10 9 9 9 9 9 9 9 9
19 19 18 18 17 16 16 15 15 14 14 14 13 13 13 13 12 12 12 11 11 11 11 11 11 10 10 10 10 10 10 10 10 9 9 9 9 9 9 9 9 9 9
19 18 17 17 16 16 15 15 14 14 14 13 13 13 13 12 12 12 11 11 11 11 10 10 10 9 9 8 8 9 9 9 9 8 8 8 8 8 8 8 8 8 8
17 17 17 16 16 16 15 15 14 14 13 13 13 12 12 12 11 11 11 11 10 10 9 9 8 8 7 7 7 7 8 8 8 7 7 7 7 7 7 6 6 6 6
16 16 16 16 15 15 15 14 14 14 13 13 12 12 12 11 11 11 10 10 9 9 8 7 7 7 6 5 5 5 5 6 6 6 5 5 5 5 5 5 5 5 4
15 15 15 15 14 14 14 14 13 13 12 12 12 11 11 11 10 10 10 9 8 8 7 6 6 6 5 5 4 3 2 1 1 3 3 4 4 4 4 4 4 3 2
14 14 14 14 13 13 13 13 13 13 12 12 11 11 11 10 10 9 9 8 7 6 6 5 5 4 4 4 3 2 1 0 -0 -1 1 2 3 3 2 2 2 1 0
13 13 13 13 13 13 13 13 13 12 12 11 11 10 10 9 9 8 8 7 6 5 5 4 4 4 3 3 2 2 1 0 -1 -2 -2 -2 -0 1 1 1 1 0 -1
12 12 12 12 12 12 12 12 12 12 12 11 10 10 9 9 8 8 7 6 5 5 4 4 3 3 3 2 2 1 0 -1 -2 -2 -3 -3 -3 -3 -2 -1 -0 -1 -2

GEFSSE_850_meantemp_042.txt.gz
Temperature
19 17 16 15 15 15 15 15 15 15 15 15 14 14 14 14 14 14 14 14 13 13 13 13 13 13 13 13 13 13 12 12 12 12 13 13 13 12 12 12 12 12 12
20 18 16 15 15 15 15 15 14 14 14 14 14 13 13 13 12 13 12 12 12 12 12 12 12 13 13 13 12 12 12 12 12 12 12 12 12 12 12 12 12 12 12
20 18 16 15 15 15 15 15 14 14 14 14 13 12 12 12 11 12 11 11 11 11 11 12 12 12 12 12 12 12 12 12 12 12 12 12 12 12 12 12 12 12 11
19 18 17 16 15 15 15 15 15 15 14 13 12 11 11 11 11 11 11 11 11 11 12 12 12 12 12 12 12 12 12 12 12 12 12 12 12 12 12 12 11 11 11
19 19 18 16 16 15 15 15 15 15 14 13 12 11 11 11 11 11 12 12 13 13 13 13 13 12 12 12 13 13 13 13 13 13 13 13 13 12 12 12 11 11 11
19 19 18 17 16 15 15 15 15 15 15 14 12 12 11 11 11 12 13 13 13 14 14 13 13 13 13 13 13 13 13 13 13 13 13 13 13 13 13 12 12 11 11
19 19 18 17 16 15 15 15 15 15 15 14 13 12 11 11 12 12 13 13 14 14 14 14 14 14 14 13 13 13 13 13 13 13 13 13 13 13 13 13 12 12 11
19 18 18 17 16 15 15 15 15 15 15 14 13 12 12 12 12 13 13 13 13 13 13 13 14 13 13 13 13 13 13 13 13 12 12 12 12 12 12 12 12 12 12
18 18 18 17 16 15 15 15 15 15 15 15 14 13 13 12 13 13 13 13 13 13 13 13 13 13 13 13 13 13 13 12 12 12 12 12 12 12 12 12 12 12 12
18 18 17 17 16 15 15 15 15 15 15 15 14 14 13 13 13 13 13 13 13 13 13 13 13 13 13 13 13 13 12 12 12 12 12 12 12 12 12 12 12 12 12
18 17 17 17 17 16 15 15 14 14 15 15 14 14 14 13 13 13 13 13 13 13 13 13 13 13 13 12 12 12 12 12 12 12 12 12 12 12 12 12 12 12 12
19 18 18 17 17 16 15 15 15 14 14 14 14 14 14 13 13 13 13 13 13 13 12 12 12 12 12 12 12 12 12 12 12 12 12 12 12 12 12 12 12 12 12
19 19 18 18 17 17 16 15 15 14 14 14 14 14 13 13 13 13 13 12 12 12 12 12 12 12 12 12 12 12 12 12 12 12 12 11 11 11 11 11 11 11 11
19 19 19 18 18 17 16 16 15 15 14 14 14 13 13 13 13 12 12 12 12 12 12 12 12 12 12 11 11 11 11 11 11 11 11 11 11 11 11 11 11 11 11
20 19 19 18 18 17 16 16 15 15 14 14 13 13 13 13 12 12 12 12 12 12 11 11 11 11 11 11 11 11 11 11 11 11 11 11 11 11 10 10 10 10 10
20 20 19 19 18 17 17 16 15 14 14 13 13 13 13 12 12 12 12 12 12 11 11 11 11 11 11 11 11 11 11 11 11 11 10 10 10 9 9 9 9 9 9
20 20 20 19 19 18 17 16 15 14 14 13 13 13 13 12 12 12 12 12 12 11 11 11 11 11 11 11 11 11 10 10 10 10 10 9 9 8 8 8 8 9 9
20 20 20 19 19 18 17 16 15 14 14 13 13 13 13 13 12 12 12 12 12 11 11 11 11 11 11 11 10 10 10 10 9 9 9 8 8 8 8 8 8 8 8
20 20 20 19 19 18 17 16 15 14 14 14 13 13 13 13 12 12 12 12 11 11 11 11 11 10 10 10 10 9 9 9 9 8 8 7 7 8 8 8 8 8 8
19 19 19 19 18 18 16 15 15 14 14 14 13 13 13 12 12 12 12 11 11 11 10 10 10 9 9 9 9 9 9 9 8 8 7 7 7 7 7 7 7 7 7
19 19 19 19 18 17 16 15 15 14 14 13 13 13 12 12 11 11 11 11 11 10 10 9 9 8 8 8 8 8 8 8 8 7 7 7 7 7 6 6 6 6 6
18 18 18 18 17 17 16 15 15 14 13 13 13 12 12 11 11 11 11 11 10 10 9 8 8 7 7 6 6 6 6 7 6 6 6 6 5 5 5 5 5 5 5
17 18 18 17 17 16 15 14 14 13 13 12 12 12 11 11 11 11 10 10 10 9 8 7 7 6 5 5 4 4 3 2 3 4 4 4 4 4 4 4 4 4 3
17 17 17 16 16 15 14 14 14 13 13 12 12 11 11 10 10 10 10 9 9 8 7 6 6 5 5 4 3 3 2 0 -0 -0 2 3 3 3 3 3 3 3 2
16 16 16 15 15 14 13 13 13 13 13 12 11 11 11 10 10 10 9 9 8 7 6 5 5 4 4 3 3 2 1 0 -1 -3 -3 -0 1 1 2 2 2 2 1
15 15 15 14 14 13 13 12 13 13 12 12 11 11 10 10 9 9 8 8 7 6 5 5 4 4 3 3 2 1 0 -1 -2 -4 -4 -4 -3 -2 -1 -0 0 0 -0

GEFSSE_850_meantemp_048.txt.gz
Temperature
18 17 17 16 15 15 15 15 15 15 15 15 14 14 14 13 13 13 13 13 13 13 13 13 13 13 13 13 13 13 13 13 13 13 14 14 14 13 13 13 13 12 13
19 18 17 16 15 15 15 15 15 15 15 14 14 13 13 12 12 12 12 12 12 12 13 13 13 13 13 13 13 12 12 12 13 13 13 13 13 13 13 13 13 12 13
19 18 17 16 15 15 15 15 15 15 15 14 13 13 12 12 11 11 11 11 11 12 12 12 13 13 13 13 12 12 12 12 13 13 13 12 12 13 13 13 12 13 12
19 17 16 15 15 15 15 15 15 15 15 14 13 12 12 11 11 11 11 11 11 12 12 12 13 12 12 12 12 12 12 12 13 13 12 12 12 13 13 12 12 12 12
18 17 16 16 15 15 15 15 15 15 15 14 13 12 11 11 11 12 12 12 12 12 12 12 12 12 12 12 12 12 12 13 13 12 12 12 12 13 13 13 12 12 12
18 17 17 16 15 15 15 15 16 16 15 14 13 12 12 12 12 12 13 13 13 13 13 12 13 13 13 13 13 13 13 13 12 12 12 12 12 13 13 13 13 13 12
18 17 17 16 15 15 15 15 16 16 15 14 14 13 12 12 12 12 13 13 13 13 13 13 13 13 13 13 13 13 13 13 13 12 12 12 13 13 13 13 13 13 13
18 17 16 15 15 15 15 15 15 16 15 15 14 13 12 12 13 13 13 13 13 13 13 13 13 13 13 13 13 13 13 13 13 12 12 12 13 13 13 13 13 13 13
18 17 16 15 15 14 14 14 15 15 15 15 14 14 13 13 13 13 13 13 13 13 13 13 13 13 13 13 13 13 13 13 13 12 12 12 12 12 12 12 12 12 13
17 17 16 15 15 14 14 14 14 15 15 15 15 14 14 13 13 13 13 13 13 13 13 13 13 13 13 13 13 13 13 12 12 12 12 12 12 12 12 12 12 12 12
18 17 16 15 15 14 14 14 14 14 14 15 15 14 14 12 12 12 13 13 13 13 13 13 13 13 13 12 12 12 12 12 12 12 12 12 12 12 12 12 12 12 12
18 18 17 16 15 14 14 14 14 14 14 14 13 13 13 12 12 13 13 13 13 13 13 12 12 12 12 12 12 12 12 12 11 11 11 12 12 11 11 11 11 11 11
18 18 17 16 16 15 14 14 14 14 14 13 13 13 13 13 13 13 13 13 13 12 12 12 12 12 12 12 12 12 12 12 11 11 11 12 11 11 11 11 11 11 11
17 17 18 17 16 16 15 14 14 14 14 14 14 13 13 13 13 12 12 12 12 12 12 12 12 12 12 12 12 12 12 11 11 11 11 11 11 10 10 10 10 10 10
17 17 18 17 17 16 16 15 15 14 14 14 14 13 13 13 13 12 12 12 12 12 12 12 12 12 12 12 12 12 11 11 11 10 10 10 10 10 9 9 9 9 9
18 18 18 18 17 17 16 16 15 15 14 14 14 14 13 13 13 12 12 12 12 12 12 12 12 11 11 11 11 11 11 10 10 10 9 9 9 9 8 8 8 8 8
18 18 18 18 18 17 17 16 16 15 14 14 14 13 13 13 13 12 12 12 12 12 12 12 11 11 11 11 10 10 10 10 9 9 9 8 8 8 7 8 8 8 8
18 18 18 18 18 18 17 17 16 15 14 14 14 13 13 13 13 12 12 12 12 12 12 11 11 11 11 10 10 10 10 9 8 8 7 7 7 7 7 7 7 7 7
18 18 18 19 18 18 17 17 16 15 14 14 13 13 13 13 13 12 12 12 12 11 11 11 11 11 10 10 10 9 9 9 8 7 6 6 7 7 7 7 7 7 7
18 18 18 18 18 18 17 16 15 15 14 14 13 13 13 13 13 12 12 12 11 11 11 11 11 11 10 9 9 9 9 8 7 6 6 6 6 6 6 6 6 6 6
17 18 18 18 18 18 17 17 16 14 14 13 13 13 13 13 12 12 12 11 11 11 11 11 10 10 9 9 9 8 7 8 6 6 6 5 5 6 5 5 5 5 6
16 17 18 18 18 18 18 17 16 15 14 13 13 13 12 12 12 12 11 11 11 10 10 10 10 9 9 8 7 6 6 6 5 6 6 5 5 5 5 5 5 5 5
16 17 18 18 18 18 17 16 16 15 13 13 12 12 12 11 11 11 11 10 10 10 10 10 9 8 8 7 6 5 5 6 4 4 4 4 3 4 4 4 4 4 4
16 16 17 17 17 17 17 17 16 15 13 12 12 12 11 11 11 10 10 10 10 10 9 9 8 7 7 6 5 5 4 3 2 2 2 2 1 2 2 2 3 3 3
15 16 16 17 16 16 16 16 15 13 13 12 12 11 11 10 10 10 10 10 9 9 9 8 7 6 6 5 4 4 2 1 0 -0 1 1 0 -0 -0 0 1 1 1
14 15 16 16 16 16 15 14 13 13 13 12 11 11 10 10 9 9 9 9 9 8 8 7 6 6 5 4 4 3 2 0 -0 -1 -1 -1 -1 -1 -1 -1 -1 -1 -2

GEFSSE_850_meantemp_054.txt.gz
Temperature
19 20 19 18 17 16 16 16 16 16 15 15 15 15 15 14 14 14 14 14 14 14 14 13 14 13 13 13 13 13 13 14 14 14 14 14 14 14 14 13 13 12 13
20 20 18 18 17 16 16 16 16 16 15 15 15 14 14 14 14 13 13 13 13 13 13 13 13 13 13 13 13 13 13 14 14 13 13 13 13 13 14 14 13 13 13
20 20 18 17 17 16 16 16 16 15 15 15 14 14 13 13 13 13 12 12 13 13 13 13 13 13 13 13 13 13 14 14 13 13 13 12 12 13 14 14 14 13 13
20 20 19 18 17 16 16 16 16 15 15 14 14 13 13 13 13 13 13 12 13 13 13 13 13 13 13 13 14 14 14 13 13 13 12 12 12 13 13 14 14 13 13
19 19 19 18 17 16 16 16 16 15 15 14 13 13 13 13 13 13 13 13 13 13 13 13 13 13 13 13 14 14 14 13 13 12 12 12 13 13 13 14 13 13 13
18 18 18 18 17 16 16 16 16 15 15 14 13 13 13 13 14 14 14 14 14 13 13 13 14 13 14 14 14 14 14 13 13 12 12 12 13 13 13 13 13 13 13
17 18 18 17 17 16 16 16 16 15 15 14 14 13 13 14 14 14 14 15 14 14 14 14 14 14 14 14 14 14 14 13 13 12 12 12 12 13 13 13 13 13 13
17 18 18 17 16 16 16 16 16 16 15 14 14 14 13 14 14 14 15 15 14 14 14 14 14 14 14 14 14 14 14 13 13 12 12 12 12 13 13 13 13 13 13
17 17 17 17 16 16 16 16 16 16 15 15 14 14 14 14 14 14 14 15 14 14 14 14 14 14 14 14 14 14 13 13 13 12 12 12 12 12 12 12 12 12 12
17 17 17 17 16 16 16 16 16 15 15 15 15 15 14 14 14 14 14 14 14 14 14 14 14 14 14 13 13 13 13 13 12 12 12 12 12 12 12 12 12 12 12
17 16 16 16 16 16 16 15 15 15 15 15 15 15 15 14 14 14 14 14 14 14 14 14 13 13 13 13 13 13 13 12 12 12 12 12 12 12 12 12 12 12 12
17 17 16 15 15 15 15 15 15 15 16 15 15 15 14 14 13 14 14 14 14 14 13 13 13 13 13 13 12 12 12 12 12 12 12 12 12 11 11 11 11 11 11
17 17 16 16 15 15 15 15 15 15 15 15 15 15 14 13 13 13 13 14 13 13 13 13 13 13 12 12 12 12 12 12 12 12 12 12 11 11 11 11 11 10 10
18 17 17 16 16 15 15 15 14 14 14 14 14 14 14 13 13 13 13 13 13 13 13 12 12 12 12 12 12 12 12 12 11 12 12 11 11 10 10 10 10 10 10
19 18 17 16 16 15 15 15 14 14 14 14 14 13 13 13 13 13 13 13 12 12 12 12 12 12 12 12 12 12 12 11 11 11 11 11 10 10 9 9 9 9 9
20 19 18 17 16 16 15 15 15 14 14 14 14 14 13 13 13 13 13 13 13 12 12 12 12 12 12 12 12 12 11 11 10 10 10 10 10 9 9 9 8 8 8
20 19 18 18 17 16 15 15 15 15 14 14 14 14 14 13 13 13 13 13 13 13 12 12 12 12 12 12 12 12 11 11 10 9 9 9 9 9 9 8 8 8 8
20 19 19 18 17 16 16 15 15 15 14 14 14 14 14 13 13 13 13 13 13 13 13 12 12 12 12 12 12 11 11 11 10 9 8 8 9 8 8 8 8 8 8
20 19 19 18 17 17 16 15 15 15 14 14 14 14 14 13 13 13 13 13 13 13 12 12 12 12 12 12 12 11 11 10 10 9 8 8 8 8 8 8 7 7 7
20 19 19 18 18 17 16 15 15 15 14 14 14 14 14 13 13 13 13 13 13 12 12 12 12 12 12 11 11 11 10 10 9 8 8 7 7 7 7 7 7 7 6
20 19 19 18 18 17 16 16 15 15 14 14 14 13 13 13 13 13 13 13 13 12 12 12 12 12 11 11 11 10 9 9 8 8 7 7 6 6 6 6 6 6 6
19 19 19 18 18 17 17 16 16 15 14 14 14 13 13 13 13 13 13 13 12 12 12 11 11 11 11 10 10 10 9 8 7 7 7 6 6 6 5 5 5 5 5
18 18 18 18 18 17 16 16 15 14 14 13 13 13 13 13 13 13 12 12 12 11 11 11 11 11 10 10 9 9 8 7 7 7 6 5 5 4 4 4 4 4 4
18 18 18 18 17 17 16 15 15 15 15 14 14 13 13 12 12 12 12 12 11 11 11 10 10 10 10 9 9 8 7 6 6 6 5 5 4 3 3 3 3 3 2
17 17 17 17 17 16 16 15 15 15 15 15 13 12 12 12 12 12 11 11 11 10 10 10 10 9 9 8 8 7 6 5 4 3 4 4 4 3 3 2 2 2 1
16 16 17 16 16 16 15 15 15 14 15 15 14 12 12 12 11 11 11 10 10 10 10 10 9 9 8 7 7 6 5 5 3 2 2 2 2 3 2 2 1 0 -0

GEFSSE_850_meantemp_060.txt.gz
Temperature
18 18 17 17 17 17 17 17 16 16 16 16 16 15 15 15 15 15 15 15 15 15 14 14 14 14 13 13 14 14 14 14 14 14 14 14 14 14 14 13 13 13 13
19 18 17 18 17 17 17 17 16 16 16 16 15 15 15 15 15 15 15 15 14 14 14 14 14 14 13 14 14 14 14 14 14 13 13 13 13 13 13 13 13 13 13
19 18 17 18 17 17 17 17 17 16 16 16 15 15 15 15 15 15 14 14 14 14 14 13 13 14 14 14 14 14 13 13 13 13 13 13 13 13 13 13 13 13 13
19 18 18 18 18 18 17 17 17 17 16 16 16 16 15 15 15 15 14 14 14 13 13 13 13 13 14 14 14 13 13 13 13 13 13 13 13 13 13 13 13 13 13
19 19 18 18 18 18 18 18 18 17 17 16 16 16 16 16 15 15 15 14 14 13 13 13 13 13 14 14 14 13 13 13 13 13 13 13 13 13 13 13 13 13 13
19 19 18 18 18 18 18 18 18 18 17 17 17 16 16 16 16 16 15 14 14 13 13 13 13 14 14 14 14 13 13 13 13 13 13 13 13 13 13 13 13 13 13
19 18 18 18 18 18 18 19 18 18 18 17 17 17 16 16 16 16 15 15 14 14 14 14 14 14 14 14 14 13 13 13 13 13 13 12 12 13 13 13 13 13 13
19 18 17 17 18 18 18 19 19 18 18 18 17 17 16 16 16 16 15 15 14 14 14 14 14 14 14 14 14 13 13 13 13 13 12 12 12 12 12 12 12 12 12
19 18 17 17 17 18 18 18 19 19 18 18 17 17 16 16 16 16 15 15 14 14 14 14 14 14 14 14 13 13 13 13 13 12 12 12 12 12 12 12 12 12 12
18 18 18 17 17 17 18 18 18 18 18 18 17 17 16 16 16 16 15 15 15 14 14 14 14 14 14 13 13 13 13 13 13 12 12 12 12 12 12 11 12 11 11
17 17 17 17 17 17 17 18 18 18 18 18 17 17 16 16 16 15 15 15 15 14 14 14 14 14 13 13 13 13 13 13 12 12 12 12 12 11 11 11 11 11 11
17 17 17 17 17 17 17 17 17 18 18 17 17 17 16 16 15 15 15 15 14 14 14 14 14 13 13 13 13 13 13 13 12 12 12 11 11 11 11 11 10 10 10
18 18 17 17 17 17 17 17 17 17 17 17 17 16 16 16 15 15 15 14 14 14 14 14 13 13 13 13 13 13 13 12 12 12 12 11 11 10 10 10 10 10 9
19 18 18 17 17 17 17 17 17 17 17 17 16 16 16 15 15 15 14 14 14 14 14 13 13 13 13 13 13 12 12 12 12 12 11 11 10 10 10 9 9 9 9
19 18 18 17 17 17 16 16 16 17 17 16 16 16 15 15 15 14 14 14 14 13 13 13 13 13 13 13 12 12 12 12 12 12 11 11 10 10 9 9 9 8 8
18 18 18 18 17 17 17 16 16 16 16 16 16 15 15 15 15 14 14 13 13 13 13 13 13 13 13 12 12 12 12 12 12 11 11 10 10 9 9 9 8 8 8
18 18 18 18 18 17 17 16 16 16 16 15 15 15 15 14 14 14 13 13 13 13 13 13 12 12 12 12 12 12 12 12 12 11 11 10 9 9 8 8 8 8 8
18 18 18 18 17 17 17 16 16 16 15 15 15 15 14 14 14 13 13 13 13 13 13 12 12 12 12 12 12 12 12 12 11 11 10 10 9 9 8 8 8 7 7
19 19 18 18 17 17 17 17 16 16 15 15 15 14 14 14 13 13 13 13 13 12 12 12 12 12 12 12 12 12 12 11 11 10 10 9 8 8 8 7 7 7 6
19 19 18 18 18 18 17 17 16 16 15 15 15 14 14 14 13 13 13 13 13 12 12 12 12 12 12 12 12 12 11 11 10 10 9 8 8 7 7 7 6 6 6
18 18 18 18 18 18 17 16 16 16 15 15 15 14 14 14 13 13 13 13 12 12 12 12 12 12 12 12 12 11 11 10 10 9 9 8 7 7 6 6 6 5 5
18 18 18 18 18 18 17 17 17 17 16 16 15 15 14 14 13 13 13 13 12 12 12 12 12 12 12 12 11 11 11 10 9 9 8 7 7 6 6 5 5 5 4
17 17 18 18 18 18 18 17 17 16 16 15 15 15 14 14 13 13 13 13 13 12 12 12 12 12 11 11 11 11 11 10 9 8 8 7 6 6 5 5 4 4 4
17 17 17 17 17 17 17 17 17 16 16 16 16 15 15 14 14 13 13 13 12 12 12 12 12 11 11 11 11 10 10 9 9 8 7 6 6 5 5 4 4 4 3
16 17 17 17 17 17 17 17 17 17 17 16 16 15 15 14 14 13 13 12 12 12 12 11 11 11 11 11 10 10 9 8 8 7 7 6 5 5 4 4 4 3 3
16 16 16 16 16 16 16 16 16 16 16 16 16 15 15 14 14 13 12 12 12 11 11 11 11 10 10 10 10 9 8 8 7 6 5 5 5 5 4 4 3 3 2

GEFSSE_850_meantemp_066.txt.gz
Temperature
20 18 16 16 16 16 16 16 16 16 16 16 16 16 15 15 15 15 15 15 14 14 14 14 14 13 13 14 14 14 14 14 14 14 14 14 13 13 13 13 13 13 13
21 18 16 16 16 16 16 16 16 16 16 16 16 15 15 15 15 15 15 15 14 14 14 14 13 13 13 13 13 14 13 13 13 13 13 13 13 13 13 13 13 13 13
20 18 17 16 16 16 16 16 16 16 16 16 16 16 15 15 15 15 15 15 14 14 14 13 13 13 13 13 13 13 13 13 13 13 13 13 13 13 13 13 13 13 13
20 18 17 17 17 17 17 16 16 16 16 16 16 16 16 15 15 15 15 14 14 14 14 13 13 13 13 13 13 13 13 13 13 13 13 13 13 13 13 13 13 13 13
19 18 17 17 17 17 17 17 17 16 16 16 16 16 16 16 15 15 15 14 14 14 14 14 13 13 13 13 13 13 13 13 13 13 13 13 13 13 13 13 13 13 13
19 18 17 17 17 17 17 17 17 17 17 17 17 17 16 16 16 15 15 14 14 14 14 14 14 14 14 14 14 13 13 13 13 13 13 13 13 13 13 13 13 13 13
19 18 17 17 17 17 17 17 17 17 17 17 17 17 17 17 16 16 15 14 14 14 14 14 14 14 14 14 14 13 13 13 13 13 12 12 12 12 13 13 12 12 12
18 18 17 17 17 17 17 17 17 17 17 17 17 17 17 17 16 16 15 15 14 14 14 14 14 14 14 14 14 13 13 13 12 12 12 12 12 12 12 12 12 12 12
17 17 17 17 17 17 17 17 18 17 17 17 17 17 17 17 17 16 15 15 14 14 14 14 14 14 14 14 13 13 13 13 12 12 12 12 12 12 12 12 12 12 12
17 17 17 18 18 18 18 17 18 18 17 17 17 17 17 17 16 16 15 15 14 14 14 14 14 14 13 13 13 13 13 12 12 12 12 12 11 11 11 11 11 11 11
17 17 17 18 18 18 18 17 17 17 17 17 17 17 17 17 16 16 15 15 14 14 14 14 14 13 13 13 13 13 12 12 12 12 11 11 11 11 11 11 11 11 11
18 17 17 17 18 18 18 18 18 18 17 17 17 17 17 16 16 16 15 15 14 14 14 14 13 13 13 13 13 12 12 12 12 12 11 11 11 11 11 11 10 10 10
19 18 18 17 17 17 18 18 18 18 18 17 17 17 16 16 16 15 15 15 14 14 14 13 13 13 13 13 13 12 12 12 12 11 11 11 10 10 10 10 10 10 10
19 19 18 18 17 17 17 17 17 18 18 17 17 17 16 16 15 15 15 14 14 14 13 13 13 13 13 13 12 12 12 12 12 11 11 11 10 10 10 10 10 9 9
19 19 18 18 18 17 17 17 17 17 17 17 17 16 16 16 15 15 15 14 14 13 13 13 13 13 13 13 12 12 12 12 12 11 11 11 10 10 10 9 9 9 9
18 18 18 18 18 17 17 17 17 17 17 17 17 16 16 16 15 15 14 14 14 13 13 13 12 12 12 12 12 12 12 12 11 11 11 11 10 10 9 9 9 9 9
18 18 18 18 17 17 17 17 17 16 16 16 16 16 16 15 15 14 14 14 13 13 13 12 12 12 12 12 12 12 12 12 11 11 11 10 10 9 9 9 9 8 8
17 17 17 17 17 17 17 17 16 16 16 16 16 16 15 15 15 14 14 14 13 13 12 12 12 12 12 12 12 12 12 12 11 11 11 10 10 9 9 9 8 8 8
17 17 17 17 17 17 17 17 17 16 16 16 16 15 15 15 15 14 14 13 13 12 12 12 12 12 12 12 12 12 12 11 11 11 11 10 9 9 9 8 8 8 8
17 17 17 17 17 17 17 17 16 16 16 16 16 15 15 15 15 14 14 13 13 12 12 12 12 12 11 11 11 11 11 11 11 11 10 10 9 9 8 8 8 7 7
17 17 17 17 17 17 17 17 16 16 16 16 16 16 15 15 15 14 14 13 13 12 12 12 12 12 11 11 11 11 11 11 11 11 10 10 9 9 8 8 7 7 7
17 17 17 17 17 17 17 17 17 17 17 17 16 16 16 15 15 14 14 14 13 12 12 12 12 12 11 11 11 11 11 11 11 11 10 10 9 8 8 7 7 6 6
16 16 16 17 17 17 17 17 16 16 16 16 16 16 16 15 15 15 14 14 14 13 13 12 12 12 12 11 11 11 11 11 11 10 10 10 9 8 8 7 6 6 5
15 16 16 16 16 16 16 16 16 16 16 16 17 16 16 16 15 15 15 14 14 13 13 12 12 12 12 11 11 11 11 11 11 10 10 9 9 8 7 6 6 5 5
15 15 15 16 16 16 16 16 16 16 16 16 16 16 16 16 15 15 15 14 14 13 13 12 12 12 11 11 11 11 10 10 10 10 9 9 8 7 7 6 5 5 4
14 14 15 15 15 15 15 15 15 15 15 15 15 16 16 15 15 15 15 14 14 13 13 13 12 11 11 11 10 10 10 10 10 9 8 8 7 7 6 5 5 4 4

GEFSSE_850_meantemp_072.txt.gz
Temperature
20 20 19 17 17 17 17 17 17 16 16 16 16 16 16 15 15 15 15 15 15 15 14 14 14 14 14 14 14 14 14 14 15 14 14 14 14 14 14 14 13 13 13
21 20 19 18 17 17 17 17 17 16 16 16 16 16 15 15 15 15 15 15 14 14 14 14 14 14 14 14 14 14 14 14 14 14 14 14 14 14 14 14 13 13 13
21 20 19 18 17 17 17 16 16 16 16 16 16 15 15 15 15 15 15 15 14 14 14 14 14 14 14 14 14 14 14 14 14 14 14 13 13 14 14 14 14 13 14
19 19 18 18 17 17 16 16 16 16 16 16 16 15 15 15 15 15 15 14 14 14 14 14 14 14 14 14 14 14 14 14 14 14 13 13 13 13 13 13 13 13 13
18 18 18 17 17 16 16 16 16 16 16 16 15 15 15 15 15 15 15 14 14 14 14 14 14 14 14 14 14 14 14 14 14 13 13 13 13 13 13 13 13 13 13
17 17 18 17 17 16 16 16 16 16 16 16 16 15 15 15 15 15 14 14 14 14 14 14 14 14 14 14 14 14 13 13 13 13 13 13 13 13 13 13 13 13 13
17 17 17 17 17 16 16 16 16 16 16 16 16 16 16 15 15 15 14 14 14 14 14 14 14 14 14 14 14 14 13 13 12 13 13 13 13 13 13 13 13 13 13
17 16 16 16 16 16 16 16 16 16 16 16 16 16 16 16 15 15 15 14 14 14 14 14 14 14 14 14 14 13 13 13 12 12 12 12 13 13 13 13 13 13 13
16 16 16 16 16 16 16 16 16 16 16 16 16 16 16 16 15 15 14 14 14 14 14 14 14 14 14 14 14 13 13 13 12 12 12 12 12 12 13 13 13 13 13
16 16 16 16 15 16 16 16 16 16 16 16 16 16 16 16 16 15 14 14 14 14 14 14 14 14 14 14 14 13 13 13 12 12 12 12 12 12 12 12 12 12 12
16 16 16 16 15 15 15 16 16 16 16 16 16 16 16 16 15 15 15 14 14 14 14 14 14 14 14 14 13 13 13 12 12 12 11 12 12 12 12 12 12 12 12
16 16 16 16 16 15 16 16 15 16 16 16 16 16 16 15 15 15 15 14 14 14 14 14 14 14 13 13 13 13 12 12 11 11 11 12 11 12 12 12 11 11 11
16 16 15 16 16 15 16 16 16 16 16 16 15 15 15 15 15 15 15 15 14 14 14 14 14 13 13 13 12 12 12 12 11 11 11 11 11 11 11 11 11 11 11
15 16 15 16 16 15 16 16 16 16 16 16 16 16 16 16 16 15 15 15 14 14 14 14 13 13 13 13 12 12 12 11 11 10 11 11 11 11 11 11 11 10 10
15 15 16 16 16 16 16 16 16 16 16 16 16 16 16 16 16 15 15 15 14 14 14 14 13 13 13 12 12 12 12 11 11 10 11 11 11 11 10 10 10 10 10
15 15 16 16 16 16 16 16 16 16 16 16 16 16 16 16 16 16 15 15 14 14 14 14 13 13 13 12 12 12 12 11 11 10 10 11 11 11 10 10 10 10 10
15 15 16 16 16 16 16 16 16 16 16 16 16 16 16 16 16 15 15 15 14 14 14 13 13 13 13 13 12 12 11 11 11 11 10 10 10 11 10 10 10 10 10
15 15 16 16 16 17 17 16 16 16 16 16 16 16 16 15 15 15 15 15 14 14 14 13 13 13 13 12 12 12 12 12 11 11 11 11 10 10 10 10 10 10 9
16 16 16 16 17 17 17 16 16 16 16 16 16 16 16 15 15 15 14 14 14 14 13 13 13 12 12 12 12 12 11 11 11 11 11 11 11 10 10 10 10 9 9
16 16 16 16 17 17 17 16 16 16 16 16 16 16 16 15 15 14 14 14 14 13 13 13 12 12 12 12 12 11 11 11 11 11 11 11 11 10 10 10 9 9 9
16 16 16 16 17 16 16 16 16 17 17 17 17 16 16 15 15 14 14 14 13 13 13 13 12 12 12 12 11 11 11 11 11 11 11 10 10 10 10 9 9 9 8
16 16 16 16 16 16 16 17 17 17 17 17 17 16 16 16 15 15 14 14 14 13 13 12 12 12 12 12 11 10 10 10 11 11 11 11 10 10 10 9 9 8 8
15 16 16 16 16 16 16 16 16 16 16 16 16 17 17 16 16 16 15 14 14 13 13 13 13 12 12 12 11 10 10 11 11 11 11 11 10 10 9 9 9 8 8
15 15 15 16 16 16 16 16 15 15 15 16 16 16 17 16 16 16 15 14 14 13 13 13 13 12 12 11 11 11 11 11 11 11 11 11 10 10 9 9 8 8 7
14 14 15 15 15 15 15 15 15 15 15 15 15 15 16 16 16 15 15 14 13 13 13 13 13 12 12 11 11 11 10 10 10 10 10 10 10 9 8 8 7 7 6
13 14 14 14 14 14 14 14 14 14 15 14 14 15 15 15 15 15 15 14 13 13 13 12 12 12 12 11 11 11 11 10 10 10 9 9 9 9 8 7 7 6 6

GEFSSE_850_meantemp_078.txt.gz
Temperature
21 22 21 20 19 18 17 17 17 17 16 16 16 16 16 15 15 15 15 15 14 14 14 14 14 14 14 15 15 15 15 14 14 14 14 14 14 14 14 14 13 14 14
22 22 21 20 18 18 17 17 17 17 16 16 16 16 16 15 15 15 15 15 14 14 14 14 14 14 14 15 15 15 15 14 14 14 14 14 14 14 14 14 14 14 14
22 22 21 20 18 18 17 17 17 16 16 16 16 16 16 15 15 15 15 14 14 14 14 14 14 15 15 15 15 15 14 14 14 13 13 13 14 14 14 14 14 14 14
21 21 21 20 18 17 17 17 16 16 16 16 16 16 16 15 15 15 15 15 15 14 14 14 15 15 15 14 14 14 14 14 13 13 13 13 14 14 14 14 14 14 14
19 20 20 19 18 17 17 17 16 16 16 16 16 16 16 16 15 15 15 15 15 14 14 14 15 15 14 14 14 14 14 13 13 13 13 13 14 14 14 14 14 14 13
18 19 19 18 17 17 17 16 16 16 16 16 16 16 16 15 15 15 15 15 15 14 14 15 15 15 14 14 14 14 13 13 13 13 13 13 13 14 13 13 13 13 13
17 18 18 18 17 16 16 16 16 16 16 16 16 16 16 16 15 15 15 15 15 14 14 15 15 14 14 14 14 14 13 13 13 13 13 13 13 13 13 13 13 13 13
18 17 18 17 17 16 16 16 16 16 16 16 16 16 16 16 15 15 15 15 15 14 14 14 15 14 14 14 14 14 13 13 13 13 13 13 13 13 13 13 13 13 13
17 17 17 17 16 16 16 16 16 16 16 16 16 16 16 16 16 15 15 15 15 15 15 15 15 15 14 14 14 14 13 13 13 12 13 13 13 13 13 13 13 13 13
17 17 17 16 16 16 16 16 16 16 16 16 16 17 16 16 16 16 15 15 15 15 15 15 15 15 15 14 14 14 13 13 12 12 13 13 13 13 13 13 13 13 13
17 16 16 16 16 16 16 16 16 16 16 16 16 17 17 16 16 16 16 15 15 15 15 15 15 15 15 14 14 14 13 13 12 12 13 13 13 13 13 13 13 13 13
17 16 16 16 16 16 16 16 16 16 16 16 17 17 17 16 16 16 16 16 15 15 15 15 15 15 15 14 14 14 13 13 12 12 13 12 13 13 13 13 13 13 13
16 16 16 16 16 15 15 16 16 16 16 16 16 16 16 15 15 16 16 16 16 15 15 15 15 15 14 14 14 13 13 13 12 12 13 12 13 13 13 13 13 13 12
16 16 16 16 15 15 15 15 15 15 16 16 15 16 15 15 15 16 16 16 16 16 15 15 15 15 14 13 13 13 13 13 12 12 13 12 13 13 13 13 12 12 12
16 16 16 16 15 15 15 15 15 15 15 15 15 15 15 15 15 16 16 16 16 15 15 15 15 14 14 13 13 13 13 12 12 12 13 13 13 13 12 12 12 12 12
16 15 15 16 15 15 15 15 15 15 15 15 15 15 15 15 15 15 15 15 15 15 15 15 15 14 14 13 13 13 13 12 12 12 12 12 13 13 12 12 12 12 11
16 15 15 15 15 15 15 15 15 15 15 15 15 15 15 15 15 15 15 15 15 15 14 14 14 13 13 13 13 13 13 12 12 12 12 12 13 12 12 12 12 12 11
16 15 15 15 15 15 15 15 15 15 15 15 15 15 16 15 15 15 15 15 15 15 14 14 14 13 13 13 13 13 13 12 12 12 12 12 12 13 12 12 12 12 11
16 16 15 15 15 15 15 15 15 15 15 15 15 15 16 16 15 15 15 15 14 14 14 14 13 13 13 13 13 13 12 12 12 12 11 11 12 12 12 12 12 12 11
16 16 16 15 15 15 15 15 15 15 15 15 15 15 15 15 15 15 15 15 14 14 14 13 13 13 13 13 12 12 12 12 12 12 11 11 11 12 12 12 12 11 11
16 16 16 16 15 15 15 15 15 15 15 15 15 15 15 15 15 15 15 14 14 14 14 13 13 13 12 12 11 11 11 11 11 12 11 11 11 11 11 11 11 11 11
16 16 16 16 16 15 15 15 15 15 15 16 16 16 15 15 15 15 14 14 14 13 13 13 13 12 12 12 11 11 11 11 11 11 11 11 11 11 11 11 11 11 11
15 15 15 15 15 15 15 15 15 15 15 15 16 16 16 15 15 14 14 14 13 13 13 13 12 12 12 12 11 11 11 11 12 11 11 11 11 10 10 10 9 9 9
14 15 15 15 15 15 15 15 15 15 15 15 15 16 16 15 15 14 14 13 13 13 12 12 12 12 12 11 11 11 11 11 11 11 11 11 10 10 9 9 9 8 8
13 14 14 14 14 15 15 14 14 14 14 14 14 14 14 14 14 14 13 13 13 12 12 12 12 11 11 11 11 11 11 10 10 11 11 10 10 10 9 9 8 8 8
12 13 13 13 14 14 14 14 14 14 14 14 13 13 13 13 13 13 13 12 12 12 12 11 11 11 11 11 11 11 11 10 10 10 10 10 10 9 9 8 7 7 7

GEFSSE_850_meantemp_084.txt.gz
Temperature
19 19 19 18 18 17 17 17 17 17 16 16 16 16 15 15 15 15 15 15 15 15 14 15 15 14 14 14 14 14 14 14 14 14 14 14 14 14 14 14 14 14 14
20 19 19 18 18 17 17 17 17 17 16 16 16 16 15 15 15 15 15 15 15 15 15 15 15 15 14 14 14 14 14 14 14 14 14 14 14 14 14 14 14 14 14
20 19 19 19 18 17 17 17 17 17 16 16 16 16 16 15 15 15 15 15 15 15 15 15 15 15 14 14 14 14 14 14 14 14 13 14 14 14 14 14 14 14 14
20 19 19 18 18 17 17 17 17 17 16 16 16 16 16 15 15 15 15 15 15 15 15 15 15 15 14 14 14 14 14 14 14 14 14 14 14 14 14 14 14 14 14
20 19 18 18 18 17 17 17 17 17 17 16 16 16 16 16 16 15 15 15 15 15 15 15 15 15 14 14 14 14 14 14 14 14 14 14 14 14 14 14 14 14 14
19 19 18 18 17 17 17 17 17 17 17 17 17 17 16 16 16 16 15 15 15 15 15 15 15 15 14 14 14 14 14 14 14 14 14 14 14 14 14 14 14 14 14
19 18 17 17 17 17 17 17 17 17 17 17 17 17 17 16 16 16 15 15 15 15 15 15 15 15 14 14 14 14 14 14 14 14 14 14 14 14 14 14 14 14 14
19 18 17 17 17 17 17 17 17 17 17 17 17 17 17 17 16 16 16 15 15 15 15 15 15 15 15 14 14 14 14 14 14 14 14 14 14 14 14 14 14 14 14
18 17 16 16 16 16 16 16 17 17 17 17 17 17 17 17 17 16 16 16 16 16 16 16 15 15 15 15 14 14 14 14 14 14 14 14 14 14 14 14 14 14 14
17 17 16 16 16 16 16 16 17 17 17 17 17 17 17 17 17 16 16 16 16 16 16 16 15 15 15 15 14 14 14 14 14 14 14 14 14 14 14 14 14 14 14
17 16 16 16 16 16 16 16 17 17 17 17 17 18 17 17 17 17 16 16 16 16 16 16 15 15 15 15 14 14 14 14 14 14 14 14 14 14 14 14 14 14 14
16 16 16 16 16 16 16 16 17 17 17 17 18 18 18 17 17 17 16 16 16 16 16 16 15 15 15 15 14 14 14 14 14 14 14 14 14 14 14 14 14 14 14
17 16 16 16 16 16 16 16 16 17 17 17 17 17 17 17 17 17 17 16 16 16 16 16 15 15 15 15 14 14 14 14 14 14 13 13 13 14 14 14 14 14 14
17 16 16 16 16 16 16 16 16 17 17 17 18 18 18 18 17 17 17 17 16 16 16 16 15 15 15 15 14 14 14 14 13 13 13 13 13 13 13 14 14 14 13
16 16 16 16 16 16 16 16 16 16 17 17 17 17 17 17 17 17 17 16 16 16 16 16 15 15 15 15 14 14 14 13 13 13 13 13 13 13 13 13 13 13 13
17 16 16 16 15 15 15 15 16 16 16 16 16 17 17 17 17 17 17 16 16 16 16 15 15 15 15 14 14 14 14 13 13 13 13 13 13 13 13 13 13 13 13
17 16 16 16 15 15 15 15 15 15 16 16 16 16 16 17 17 16 16 16 16 16 16 15 15 15 14 14 14 14 13 13 13 13 13 13 13 13 13 13 13 12 12
17 16 16 16 15 15 15 15 15 15 15 15 15 16 16 16 16 16 16 16 16 15 15 15 15 14 14 14 14 13 13 13 13 13 13 13 13 13 12 12 12 12 12
17 17 16 16 16 15 15 15 15 15 15 15 15 15 15 15 15 15 15 15 15 15 15 14 14 14 14 13 13 13 12 12 12 12 12 12 12 12 12 12 12 12 12
17 16 16 16 16 15 15 15 15 15 15 14 14 15 15 15 15 15 15 15 14 14 14 14 14 13 13 13 12 12 12 12 12 12 12 12 12 12 12 12 12 11 11
17 16 16 16 16 15 15 15 15 15 15 14 14 14 14 14 14 14 14 14 14 14 14 14 13 13 13 12 12 11 11 11 12 12 12 12 12 12 12 11 11 11 11
17 16 16 16 16 15 15 15 15 15 15 15 14 14 14 14 14 14 14 14 14 13 13 13 13 12 12 12 11 11 11 11 12 12 12 12 12 12 11 11 11 11 10
16 16 16 16 15 15 15 15 14 14 14 14 14 14 14 14 14 14 14 14 13 13 13 13 12 12 12 12 11 11 11 11 12 12 12 12 12 12 11 11 11 10 10
16 16 15 15 15 15 15 15 14 14 14 14 15 14 14 14 14 14 13 13 13 13 13 12 12 12 12 11 11 11 11 11 11 11 11 12 11 11 11 11 10 10 9
15 15 15 15 15 15 15 14 14 14 14 14 14 14 14 14 14 13 13 13 13 13 12 12 12 12 11 11 11 11 11 10 10 10 10 11 11 11 11 10 10 9 9
14 14 14 14 14 14 14 14 14 14 14 14 14 14 14 14 13 13 13 13 12 12 12 12 12 11 11 11 11 11 11 10 10 10 10 10 10 10 10 9 9 9 8

GEFSSE_850_meantemp_090.txt.gz
Temperature
18 17 17 17 17 17 17 17 17 17 16 16 16 16 16 16 15 15 15 15 15 15 15 15 15 15 15 15 14 14 15 14 14 14 14 14 14 14 14 14 14 14 14
19 17 17 17 17 17 17 17 17 16 16 16 16 16 16 16 15 15 15 15 15 15 15 15 15 15 15 15 15 15 14 14 14 14 14 14 14 14 14 14 14 14 14
19 17 17 17 17 17 17 17 17 16 16 16 16 16 16 15 15 15 15 15 16 16 15 15 15 15 15 15 15 15 15 14 14 14 14 14 14 14 14 14 14 14 14
19 17 17 17 17 17 17 17 17 16 16 16 16 16 16 16 15 15 15 15 16 16 16 16 15 15 15 15 15 15 15 14 14 14 14 14 14 14 14 14 14 14 14
19 18 17 17 17 17 17 17 17 16 16 16 16 16 16 16 15 15 15 16 16 16 16 15 15 15 15 15 15 15 14 14 14 14 14 14 14 14 14 14 14 14 14
18 18 17 17 17 17 17 17 17 16 16 16 16 16 16 16 16 16 15 16 16 16 16 15 15 15 15 15 15 15 14 14 14 14 14 14 14 14 14 14 14 14 14
18 18 17 16 16 17 17 17 16 16 16 16 16 16 16 16 16 16 16 16 16 16 15 15 15 15 15 15 15 14 14 14 14 14 14 14 14 14 14 14 14 14 14
18 17 17 16 16 16 16 16 16 16 17 17 16 17 17 16 16 16 16 16 16 16 15 15 15 15 15 15 15 15 14 14 14 14 14 14 14 14 14 14 14 14 14
17 17 16 16 16 16 16 16 16 16 16 17 17 17 17 16 16 16 16 16 16 16 16 16 15 15 15 15 15 15 14 14 14 14 14 14 14 14 14 14 14 14 14
16 16 16 16 16 16 16 16 16 16 16 16 17 17 17 17 16 16 16 16 16 16 16 16 15 15 15 15 15 15 14 14 14 14 14 14 14 14 14 14 14 14 14
15 16 16 16 16 16 16 16 16 16 16 16 16 17 17 17 16 16 16 16 16 16 16 16 15 15 15 15 15 15 14 14 14 14 14 14 14 14 14 14 14 14 14
15 15 15 16 15 15 16 16 16 16 16 16 16 17 17 17 16 16 16 16 16 16 16 16 15 15 15 15 15 15 14 14 14 14 14 14 13 13 14 14 14 14 14
16 16 15 15 15 15 15 16 16 16 16 16 16 16 17 16 16 16 16 16 16 16 16 16 15 15 15 15 15 15 15 14 14 14 14 13 13 13 13 13 13 13 13
16 16 16 15 15 15 15 15 16 16 16 16 16 17 17 16 16 16 16 16 16 16 16 15 15 15 15 15 15 15 15 14 14 14 13 13 13 13 13 13 13 13 13
16 16 16 16 15 15 15 15 15 16 16 16 16 16 16 16 16 16 16 16 16 15 15 15 15 15 15 15 14 14 14 14 14 14 13 13 13 13 12 12 12 12 12
17 16 16 16 16 15 15 15 15 15 15 15 16 16 16 16 16 16 16 15 15 15 15 15 15 14 14 14 14 14 14 14 14 13 13 13 13 13 12 12 12 12 12
17 17 16 16 16 15 15 15 15 15 15 15 15 15 16 16 16 16 15 15 15 15 15 14 14 14 14 14 14 14 14 13 13 13 13 13 12 12 12 12 12 12 11
17 17 16 16 16 15 15 15 15 15 15 15 15 15 15 15 15 15 15 15 15 14 14 14 14 14 14 14 14 13 13 13 13 13 13 12 12 12 12 12 11 11 11
17 17 16 16 16 15 15 15 15 15 14 14 14 14 15 15 15 15 15 15 14 14 14 14 14 13 13 13 13 13 13 13 13 12 12 12 12 12 12 12 11 11 11
17 16 16 16 16 15 15 15 15 15 14 14 14 14 14 14 14 14 14 14 14 13 13 13 13 13 13 12 12 12 12 12 12 12 12 12 12 12 12 12 11 11 11
16 16 16 16 16 15 15 15 15 15 15 14 14 14 14 14 14 14 14 14 13 13 13 13 12 12 12 12 12 12 12 12 12 12 12 12 12 12 12 12 11 11 11
17 16 16 16 16 15 15 15 15 15 15 15 14 14 14 14 14 14 14 13 13 13 13 12 12 12 12 12 11 11 11 12 13 13 13 12 12 12 12 12 11 11 11
16 16 16 16 16 16 15 15 15 15 14 14 14 14 14 14 14 14 13 13 13 13 13 13 12 12 12 12 11 11 11 11 11 12 12 12 12 12 12 11 11 11 10
16 16 16 16 16 15 15 15 15 15 15 15 14 14 14 14 14 14 13 13 13 13 13 13 12 12 12 11 11 11 11 11 11 11 11 11 11 11 11 11 11 10 10
16 16 16 15 15 15 15 15 15 15 14 14 14 14 14 14 14 13 13 13 13 13 13 13 12 12 12 11 11 11 11 11 10 10 10 10 11 11 10 10 10 10 9
15 15 15 15 15 15 15 15 14 14 14 14 14 14 14 13 13 13 13 13 13 13 13 12 12 12 11 11 11 11 10 10 10 10 10 10 10 10 10 10 9 9 9

GEFSSE_850_meantemp_096.txt.gz
Temperature
17 17 17 17 17 17 16 16 16 16 16 16 16 16 16 16 16 16 16 15 15 15 15 15 15 15 15 15 15 15 15 15 15 15 15 15 15 15 15 15 14 14 15
18 17 17 17 17 16 16 16 16 16 16 16 16 16 16 16 16 16 16 15 15 15 15 15 15 15 15 15 15 15 15 15 15 15 15 15 15 14 15 15 14 14 15
18 17 17 17 17 17 16 16 16 16 16 16 16 16 16 16 16 16 16 16 15 15 15 15 15 15 15 15 15 15 15 15 15 15 14 14 14 14 14 14 14 14 14
18 17 17 17 17 17 16 16 16 16 16 16 16 16 16 16 16 16 16 16 16 15 15 15 15 15 15 15 15 15 15 15 15 14 14 14 14 14 14 14 14 14 14
17 17 16 17 17 16 16 16 16 16 16 16 16 16 16 16 16 16 16 16 16 16 16 16 15 16 15 15 15 15 15 15 15 14 14 14 14 14 14 14 14 14 14
16 16 16 16 16 16 16 16 16 16 16 16 16 16 16 15 16 16 16 16 16 16 16 15 15 15 15 15 15 15 15 15 14 14 14 14 14 14 15 15 15 14 14
16 16 16 16 16 16 16 16 16 16 16 16 16 16 16 15 16 16 16 16 16 16 16 15 15 15 15 15 15 15 15 15 14 14 13 14 14 14 14 15 15 15 14
16 16 16 16 16 16 16 16 16 16 16 16 16 16 16 16 16 16 16 16 16 16 15 15 15 15 15 15 15 15 15 15 14 14 14 14 14 14 14 14 14 14 14
16 16 16 16 16 16 16 16 16 16 16 16 16 16 16 16 16 16 16 16 16 16 15 15 15 15 15 15 15 15 15 15 13 14 13 14 14 14 14 14 14 14 14
15 15 16 16 15 15 16 16 16 16 16 16 16 16 16 16 16 16 16 16 16 16 16 15 15 15 15 15 15 15 15 14 13 13 13 14 14 14 14 14 14 14 14
15 15 15 15 15 15 15 16 16 16 16 16 16 16 16 15 15 16 16 16 16 16 16 16 15 15 15 15 15 15 14 13 13 13 13 14 14 14 14 14 14 14 14
15 15 15 15 15 15 15 15 15 15 16 15 15 16 15 15 15 15 16 16 16 16 16 16 15 15 15 14 15 15 14 13 13 13 13 14 14 14 14 14 14 14 14
15 15 15 15 15 15 15 15 15 15 15 15 15 15 15 15 15 15 15 15 15 15 15 15 15 15 14 14 14 14 14 13 13 13 13 14 14 14 14 14 13 13 13
15 15 15 15 15 15 15 15 15 15 15 15 15 15 15 15 15 15 15 15 15 15 15 15 14 14 14 14 14 14 13 13 13 13 13 14 14 13 13 13 13 13 13
15 15 15 15 15 15 15 15 15 15 15 15 15 15 15 15 15 15 15 15 15 15 15 15 14 14 14 14 14 14 14 13 13 13 13 14 13 13 13 13 13 13 13
16 15 15 15 15 15 15 15 15 15 15 15 15 15 15 15 15 15 15 15 15 15 14 14 14 14 14 13 13 13 13 13 13 13 13 13 13 13 13 13 12 12 12
16 16 15 15 15 15 15 15 15 15 15 15 15 15 15 15 15 15 15 15 14 14 14 14 14 14 14 14 14 13 13 13 13 13 13 13 13 13 13 12 12 12 12
16 16 16 15 15 15 15 15 15 15 15 15 15 15 15 15 15 15 15 15 14 14 14 14 13 13 13 13 13 13 13 13 13 13 13 13 13 13 13 12 12 12 11
16 16 16 15 15 15 15 15 15 14 14 14 14 15 15 14 15 14 14 14 14 14 14 13 13 13 13 13 13 13 13 13 13 13 13 13 13 13 12 12 12 12 11
16 16 16 16 15 15 15 15 15 14 14 14 14 14 14 14 14 14 14 14 14 14 14 13 13 13 13 13 13 13 13 13 13 13 13 13 13 13 12 12 12 12 11
16 16 16 16 16 15 15 15 15 15 15 14 14 14 14 14 14 14 14 14 14 13 13 13 13 13 13 12 12 12 12 13 13 13 13 13 13 13 12 12 12 12 11
16 16 16 16 16 15 15 15 15 15 15 14 14 14 14 14 14 14 14 14 13 13 13 13 13 13 12 12 12 11 12 12 13 13 13 13 13 12 12 12 12 11 11
16 16 16 16 16 16 15 15 15 14 14 14 14 14 14 14 14 14 14 13 13 13 13 13 13 13 12 12 12 11 11 12 12 12 12 12 12 12 12 11 11 11 11
16 16 16 16 16 16 15 15 15 14 14 14 15 15 14 14 14 14 14 13 13 13 13 13 13 13 12 12 12 12 11 11 11 11 11 11 11 11 11 11 11 10 10
15 15 16 16 16 16 15 15 15 15 14 14 14 14 14 14 14 14 13 13 13 13 13 13 13 12 12 12 11 11 11 11 10 10 10 10 10 11 11 10 10 10 10
15 15 15 15 15 15 15 15 15 15 14 14 14 14 14 14 14 13 13 13 13 13 13 13 12 12 12 11 11 11 11 10 10 10 10 10 10 10 10 10 10 9 9

GEFSSE_850_meantemp_102.txt.gz
Temperature
18 19 18 17 17 17 17 16 16 16 16 16 16 16 16 16 16 15 15 15 15 15 15 15 15 15 15 15 15 15 15 15 15 15 15 15 15 15 15 14 15 15 15
20 19 18 17 17 17 17 16 16 16 16 16 16 16 16 16 15 15 15 15 15 15 15 15 15 15 15 15 15 15 15 15 15 15 15 15 15 15 15 15 15 15 15
20 19 18 17 17 17 16 16 16 16 16 16 16 16 16 16 15 15 15 15 15 16 15 15 15 15 15 15 15 15 15 14 14 14 14 15 15 15 15 15 15 15 15
20 19 18 17 17 17 16 16 16 16 16 16 16 16 16 16 16 15 15 15 15 15 15 15 15 15 15 15 15 15 15 14 14 14 14 15 15 15 15 15 15 15 15
19 19 18 17 17 16 16 16 16 16 16 16 16 16 16 16 16 15 15 16 15 16 16 16 16 16 16 15 15 15 15 14 14 14 15 15 15 15 15 15 15 15 15
18 18 18 17 16 16 16 16 16 16 16 16 16 16 16 16 16 16 16 16 16 16 16 16 16 16 16 15 15 15 14 14 14 14 15 15 15 15 16 16 15 15 15
17 18 17 17 16 16 16 16 16 16 16 16 16 16 16 16 16 16 16 16 16 16 16 16 16 16 16 15 15 15 15 14 14 15 15 15 15 15 16 16 16 15 15
17 17 17 16 16 16 16 16 16 16 16 16 16 16 16 16 16 16 16 16 16 16 16 16 16 16 16 16 15 15 15 14 14 15 15 15 15 15 16 16 16 15 15
17 17 17 16 16 16 16 16 16 16 16 16 16 16 16 16 16 16 16 16 16 16 16 16 16 16 16 16 15 15 15 15 14 15 15 15 15 16 16 15 15 15 15
16 16 16 16 16 16 16 15 16 16 16 16 15 16 16 16 16 16 16 16 16 16 16 16 16 16 16 16 15 15 15 14 14 15 15 15 15 16 16 15 15 15 15
16 16 16 16 16 16 16 15 15 16 15 15 15 16 16 16 16 16 16 16 16 16 16 16 16 16 16 16 15 15 15 14 14 15 15 15 15 15 15 15 15 15 15
16 16 16 16 16 16 16 16 15 15 15 15 16 15 16 15 15 16 16 16 16 16 16 16 16 16 16 16 15 15 15 14 14 14 15 15 15 15 15 15 15 15 15
16 16 16 16 16 15 16 16 15 15 15 15 15 15 15 15 15 15 15 16 16 16 16 16 16 16 15 15 15 15 14 14 14 14 14 15 15 15 15 15 15 14 14
16 16 16 16 16 16 16 15 15 15 15 15 15 15 15 15 15 15 15 16 16 16 16 16 16 15 15 14 14 14 14 14 14 14 14 14 14 14 14 14 14 14 14
16 16 16 16 16 16 16 15 15 15 15 15 15 15 15 15 15 15 15 15 15 15 15 15 15 14 14 14 14 14 14 14 14 14 14 14 14 14 14 14 14 14 14
16 16 16 16 16 16 16 15 15 15 15 15 15 15 15 15 14 14 14 15 15 14 14 15 14 14 14 14 14 14 14 14 14 13 14 14 14 14 14 14 14 13 13
16 16 16 16 16 16 16 15 15 15 15 15 15 15 14 14 14 14 14 14 14 14 14 14 14 14 14 14 14 14 14 14 14 13 13 13 14 14 14 13 13 13 13
16 16 16 16 16 16 16 16 15 15 15 15 15 15 14 14 14 14 14 14 14 14 14 14 14 14 14 14 14 14 14 14 14 14 13 13 13 13 13 13 13 13 12
16 16 16 16 16 16 16 15 15 15 15 15 15 15 15 14 14 14 14 14 14 14 14 14 14 14 14 14 14 14 13 13 14 14 14 13 13 13 13 13 13 12 12
16 16 16 16 16 16 15 15 15 15 15 15 15 15 15 14 14 14 14 14 14 14 14 14 14 14 13 13 13 13 13 14 14 14 14 14 13 13 13 13 12 12 12
16 16 16 16 16 16 15 15 15 15 15 15 15 14 14 14 14 14 14 14 14 14 14 14 13 13 13 13 13 13 13 13 14 14 14 13 13 13 13 12 12 12 12
16 16 16 16 16 16 15 15 15 15 15 15 15 14 14 14 14 14 14 14 14 14 14 13 13 13 13 13 12 12 12 13 13 13 13 13 13 13 12 12 12 12 11
16 16 16 16 16 15 15 15 15 15 15 14 14 15 14 14 14 14 14 14 14 14 13 13 13 13 13 13 12 12 12 12 13 13 13 12 12 12 12 12 11 11 11
16 16 16 16 16 15 15 15 15 15 15 15 15 15 15 14 14 14 14 14 14 14 13 13 13 13 12 12 12 12 12 12 12 12 12 12 12 11 11 11 11 11 10
16 16 16 16 16 15 15 15 15 15 15 15 15 15 14 14 14 14 14 14 14 13 13 13 13 13 12 12 12 12 11 11 11 11 11 11 11 11 11 11 10 10 10
15 15 15 15 15 15 15 15 15 14 14 14 14 14 14 14 14 14 14 14 13 13 13 13 13 12 12 12 12 11 11 11 11 11 11 11 10 10 10 10 10 9 9

GEFSSE_850_meantemp_108.txt.gz
Temperature
17 17 17 17 17 17 17 16 16 16 16 16 16 16 16 16 16 16 16 15 15 15 16 16 16 15 15 15 15 15 15 15 15 15 15 15 15 15 15 15 15 15 15
18 17 17 17 17 17 16 16 16 16 16 16 16 16 16 16 16 15 15 15 15 16 16 16 16 15 15 15 15 15 15 15 15 15 15 15 15 15 15 15 15 15 15
18 17 17 17 17 16 16 16 16 16 16 16 16 16 16 16 16 16 16 16 16 16 16 16 16 15 15 15 15 15 15 15 15 15 15 15 15 15 15 15 15 15 15
18 17 17 17 17 16 16 16 16 16 16 16 16 16 16 16 16 16 16 16 16 16 16 16 15 15 15 15 15 15 15 15 15 15 16 16 16 15 15 15 15 15 15
18 17 17 17 16 16 16 16 16 16 16 16 16 16 16 16 16 16 16 16 16 16 16 16 15 15 15 15 15 15 15 15 15 16 16 16 16 16 16 16 16 16 16
18 17 17 16 16 16 16 16 16 16 16 16 16 16 16 16 16 16 16 16 16 16 16 16 15 15 15 15 15 15 15 15 16 16 16 16 16 16 16 16 16 16 16
17 17 16 16 16 16 16 16 16 16 16 16 16 16 16 16 16 16 16 16 16 16 16 16 15 15 15 15 15 15 16 16 16 16 16 16 16 16 16 16 16 16 16
17 17 16 16 16 16 16 16 16 16 16 16 16 16 16 16 16 16 16 16 16 16 16 16 16 15 15 15 16 16 16 16 16 16 16 16 16 16 16 16 16 16 16
17 16 16 16 16 16 16 16 16 16 16 16 16 16 16 16 16 16 16 16 16 16 16 16 16 16 15 15 16 16 16 16 16 16 16 16 16 16 16 16 16 16 15
17 16 16 16 16 16 16 16 16 16 16 16 16 16 16 16 16 16 16 16 16 16 16 16 16 16 16 15 16 16 16 16 16 16 16 16 16 16 16 16 15 15 15
16 16 16 16 16 16 16 16 16 16 16 16 16 16 16 16 16 16 16 16 16 16 16 16 16 16 16 15 15 15 16 16 16 16 16 15 15 15 15 15 15 15 15
16 16 16 16 16 15 15 16 16 16 16 16 16 16 16 16 16 16 16 16 16 16 16 16 16 16 15 15 15 15 15 15 15 15 15 15 15 15 15 15 15 15 15
16 16 16 16 15 15 15 15 15 16 15 16 16 16 16 16 16 16 16 16 16 16 16 16 16 16 15 15 15 15 15 15 15 15 15 15 15 15 15 15 14 14 14
16 16 16 15 15 15 16 15 15 15 16 15 16 16 16 16 16 16 16 16 16 16 16 16 16 16 15 15 15 15 15 15 15 15 15 15 14 14 14 14 14 14 14
16 16 16 15 15 15 15 15 15 15 16 16 16 16 16 16 16 16 16 16 16 16 16 16 16 15 15 15 15 15 15 15 14 14 14 14 14 14 14 14 14 14 14
16 16 16 16 16 15 15 15 15 15 15 16 16 16 16 16 16 16 16 16 16 16 16 15 15 15 15 15 15 14 14 14 14 14 14 14 14 14 14 14 13 13 13
16 16 16 16 15 15 15 15 15 15 15 15 15 15 15 15 16 16 16 16 16 16 15 15 15 15 14 14 14 14 14 14 14 14 14 14 14 14 14 13 13 13 13
16 16 16 16 16 15 15 15 15 15 15 15 15 15 15 15 15 15 15 16 15 15 15 15 15 14 14 14 14 14 14 14 14 14 14 14 14 13 13 13 13 13 12
16 16 15 16 16 15 15 15 15 15 15 15 15 15 15 15 15 15 15 15 15 15 15 14 14 14 14 14 14 14 14 14 14 14 14 14 14 13 13 13 12 12 12
16 16 15 15 15 15 15 15 15 15 15 15 15 15 15 15 14 14 15 15 15 14 14 14 14 14 14 13 13 13 14 14 14 14 14 14 13 13 13 12 12 12 12
16 16 15 15 15 15 15 15 15 15 15 15 15 15 15 15 15 14 14 14 14 14 14 14 14 13 13 13 13 13 13 14 14 14 14 14 13 13 13 12 12 12 12
16 16 15 16 16 15 15 15 15 15 15 15 15 15 15 15 14 14 14 14 14 14 14 14 13 13 13 13 12 12 12 13 14 14 13 13 13 13 12 12 12 12 11
16 16 16 16 16 16 16 15 15 15 15 15 15 15 15 15 14 14 14 14 14 14 14 14 14 13 13 13 12 12 12 12 12 13 13 13 12 12 12 12 12 11 11
16 16 16 16 16 16 15 15 15 15 15 15 15 15 15 14 14 14 14 14 14 14 14 14 13 13 13 13 12 12 12 12 11 11 12 12 12 12 11 11 11 11 11
16 16 16 16 16 16 15 15 15 15 15 15 15 15 14 14 14 14 14 14 14 13 13 13 13 13 12 12 12 12 12 11 11 11 11 11 11 11 11 11 10 10 10
16 16 16 15 15 15 15 15 15 15 15 15 14 14 14 14 14 14 14 13 13 13 13 13 13 12 12 12 12 11 11 11 11 11 10 11 11 10 10 10 10 10 9

GEFSSE_850_meantemp_114.txt.gz
Temperature
17 17 17 17 17 17 17 17 17 17 16 16 16 16 16 16 16 16 16 16 15 16 16 15 16 16 15 15 15 15 15 15 15 15 15 15 15 15 15 15 15 15 15
18 17 17 17 17 17 17 17 17 16 16 16 16 16 16 16 16 16 15 15 15 16 15 15 16 16 15 15 15 16 16 16 16 15 15 15 15 15 15 15 15 15 15
18 17 16 16 17 16 17 16 16 16 16 16 16 16 16 16 16 16 15 15 16 16 16 15 15 16 16 16 16 16 16 16 16 16 16 16 15 15 15 15 15 15 15
17 17 16 16 16 16 16 16 16 16 16 16 16 16 16 16 16 16 16 16 16 16 16 16 16 16 16 16 16 16 16 16 16 16 16 16 16 16 16 16 16 16 16
17 17 16 16 16 16 16 16 16 16 16 16 16 16 16 16 16 16 16 16 16 16 16 16 16 16 16 16 16 16 16 16 16 16 16 16 16 16 16 16 16 16 16
17 16 16 16 16 16 16 16 16 16 16 16 16 16 16 16 16 16 16 16 16 16 16 16 16 16 16 16 16 16 16 16 16 16 16 16 16 16 16 16 16 16 16
16 16 16 16 16 16 16 16 16 16 16 16 16 16 16 16 16 16 16 16 16 16 16 16 16 16 16 16 16 16 16 16 16 16 16 16 16 16 16 16 16 16 15
16 16 16 16 16 16 16 16 16 16 16 16 16 16 16 16 16 16 16 16 16 16 16 16 16 16 16 16 16 16 16 16 16 16 16 16 16 16 15 15 15 15 15
16 16 16 16 16 16 16 16 16 16 16 16 16 16 16 16 16 16 16 16 16 16 16 16 16 16 16 16 16 16 16 16 16 16 16 16 16 15 15 15 15 15 15
16 16 16 15 15 15 16 16 16 16 16 16 16 16 16 16 16 16 16 16 16 16 16 16 16 16 16 16 16 16 16 16 16 16 16 15 15 15 15 15 15 15 15
15 15 15 15 15 15 15 15 16 16 16 16 16 16 16 16 16 16 16 16 16 16 16 16 16 16 16 16 16 16 16 16 16 15 15 15 15 15 15 15 14 14 14
15 15 15 15 15 15 15 15 15 15 15 16 16 16 16 16 16 16 16 16 16 16 16 16 16 16 16 16 15 15 15 15 15 15 15 15 15 15 14 14 14 14 14
15 15 15 15 15 15 15 15 15 15 15 15 16 16 16 16 16 16 16 16 16 16 16 16 16 16 15 15 15 15 15 15 15 15 15 15 14 14 14 14 14 14 14
15 15 15 15 15 15 15 15 15 15 15 15 15 16 16 16 16 16 16 16 16 16 16 16 15 15 15 15 15 15 15 15 15 15 14 14 14 14 14 14 14 14 13
15 15 15 15 15 15 15 15 15 15 15 15 15 15 16 16 16 16 16 16 16 16 16 15 15 15 15 15 15 15 15 15 14 14 14 14 14 14 14 13 13 13 13
15 15 15 15 15 15 15 15 15 15 15 15 15 15 15 16 16 16 16 16 16 15 15 15 15 15 15 15 15 14 14 14 14 14 14 14 14 14 13 13 13 13 13
15 15 15 15 15 15 15 15 15 15 15 15 15 15 15 15 15 15 16 16 15 15 15 15 15 15 15 14 14 14 14 14 14 14 14 14 14 13 13 13 13 13 12
15 15 15 15 15 15 15 15 15 15 15 15 15 15 15 15 15 15 15 15 15 15 15 15 14 14 14 14 14 14 14 14 14 14 14 14 13 13 13 13 12 12 12
14 14 14 15 15 15 15 15 15 15 15 15 15 15 15 15 15 15 15 15 15 15 14 14 14 14 14 14 14 14 14 14 14 14 14 14 13 13 13 13 12 12 12
14 14 14 14 15 14 14 14 15 15 15 15 14 15 15 15 15 15 15 14 14 14 14 14 14 14 13 13 13 13 13 13 14 14 14 14 14 13 13 13 12 12 12
14 14 14 15 15 14 14 14 14 14 15 14 14 14 14 14 14 14 14 14 14 14 14 13 13 13 13 13 13 13 13 13 14 14 14 14 14 13 13 13 12 12 12
14 14 14 14 14 14 14 14 15 14 15 15 14 14 14 14 14 14 14 14 14 14 13 13 13 13 13 13 12 12 12 13 14 14 13 13 13 13 13 12 12 12 12
14 14 14 14 14 14 14 14 14 14 14 14 14 14 14 14 14 14 14 14 14 13 13 13 13 13 13 13 12 12 12 12 12 12 13 13 12 12 12 12 12 11 11
14 14 14 14 14 14 14 14 14 14 14 14 14 14 14 14 14 14 14 13 13 13 13 13 13 13 12 12 12 12 12 11 11 11 12 12 12 12 11 11 11 11 11
14 14 14 14 14 14 14 14 14 14 14 14 14 14 14 13 13 13 13 13 13 13 13 13 13 13 12 12 12 12 12 11 11 11 11 11 11 11 11 11 11 11 10
13 14 14 14 13 13 13 13 13 13 13 13 13 13 13 13 13 13 13 13 13 13 13 13 12 12 12 12 12 12 11 11 11 10 10 10 10 10 10 10 10 10 10

GEFSSE_850_meantemp_120.txt.gz
Temperature
17 17 17 17 17 17 17 17 17 17 17 16 16 16 16 16 16 16 16 16 16 16 16 16 16 16 16 16 16 16 16 16 16 16 16 16 16 16 16 15 15 15 15
18 17 17 17 17 17 17 17 17 17 16 16 16 16 16 16 16 16 16 16 16 16 16 16 16 16 16 16 16 16 16 16 16 16 16 16 16 16 16 16 16 15 15
17 17 17 17 17 17 17 17 17 16 16 16 16 16 16 16 16 16 16 16 16 16 16 16 16 16 16 16 16 16 16 16 16 16 15 15 15 16 16 16 16 16 16
17 17 17 17 17 17 17 17 16 16 16 16 16 16 16 16 16 16 16 16 16 16 16 16 16 16 16 16 16 16 16 16 16 16 15 15 15 16 16 16 16 16 16
17 16 16 17 16 16 17 17 16 16 16 16 16 16 16 16 16 16 16 16 16 16 16 16 16 16 16 16 16 16 16 16 16 15 15 15 15 16 16 16 16 16 16
16 16 16 16 16 16 16 16 16 16 16 16 16 16 16 16 16 16 16 16 16 16 16 16 16 16 16 16 16 16 16 16 15 15 15 15 15 16 16 16 16 16 16
16 16 16 16 16 16 16 16 16 16 16 16 16 16 16 16 16 16 16 16 16 16 16 16 16 16 16 16 16 16 16 16 15 15 15 15 15 16 16 16 15 15 15
16 16 16 16 16 16 16 16 16 16 16 16 16 16 16 15 16 16 16 16 16 16 16 16 16 16 16 16 16 16 16 16 16 15 15 15 15 15 15 15 15 15 15
16 16 15 15 15 16 16 16 16 16 16 16 16 15 15 15 16 16 16 16 16 16 16 16 16 16 16 16 16 16 16 16 15 15 15 15 15 15 15 15 15 15 15
15 15 15 15 15 15 15 16 16 16 15 16 15 15 15 16 16 16 16 16 16 16 16 16 16 16 16 16 16 16 16 16 15 15 15 15 15 15 15 15 15 15 15
15 15 15 15 15 15 15 15 15 15 15 15 15 15 15 15 15 15 15 16 16 16 16 16 16 16 16 16 16 16 16 15 14 15 15 15 15 15 15 15 15 14 14
15 15 15 15 15 14 14 15 15 15 15 15 15 15 15 15 15 15 15 15 15 15 15 15 16 16 15 15 15 16 15 15 15 15 15 15 15 15 15 14 14 14 14
15 15 15 15 14 14 14 14 14 14 14 14 15 15 15 15 15 15 15 15 15 15 15 15 15 15 15 15 15 15 15 14 14 14 14 15 15 14 14 14 14 14 14
14 14 14 14 14 14 14 14 14 14 14 14 15 15 15 15 15 15 15 15 15 15 15 15 15 15 15 15 15 15 15 14 14 14 14 14 14 14 14 14 14 14 14
14 14 14 14 14 14 14 14 14 14 15 15 15 15 15 15 15 15 15 15 15 15 15 15 15 15 14 14 14 14 14 14 14 14 14 14 14 14 14 14 14 14 13
14 14 14 14 14 14 14 14 14 15 15 15 15 15 15 15 15 15 15 15 15 15 15 15 15 15 14 14 14 14 14 14 14 14 14 14 14 14 14 14 13 13 13
13 14 14 14 14 14 14 14 14 15 15 15 15 15 15 15 15 15 15 15 15 15 15 15 14 14 14 14 14 14 14 14 14 14 14 13 13 14 14 13 13 13 13
13 13 13 14 14 14 14 14 14 14 15 15 15 15 15 15 15 15 15 15 15 15 14 14 14 14 14 14 14 14 14 14 14 14 14 14 13 13 13 13 13 13 13
13 13 13 14 14 14 14 14 14 14 14 14 15 15 15 15 15 15 15 14 14 14 14 14 14 14 13 14 13 14 14 14 14 14 14 14 14 14 13 13 13 13 12
13 13 13 13 13 14 14 14 14 14 14 14 14 15 15 14 14 14 14 14 14 14 14 14 14 14 13 13 13 13 13 14 14 14 14 14 14 13 13 13 13 13 12
13 13 13 13 13 13 13 13 13 13 14 14 14 14 14 14 14 14 14 14 14 14 14 14 13 13 13 13 13 13 13 13 13 14 14 13 13 13 13 13 13 12 12
12 13 13 13 13 13 13 13 14 13 14 14 14 14 14 14 14 14 14 14 14 14 14 13 13 13 13 13 12 12 12 13 13 13 13 13 13 13 13 13 12 12 12
12 12 12 13 13 13 13 13 13 13 13 13 13 13 14 14 14 14 14 14 14 14 14 13 13 13 13 13 12 12 12 13 12 12 13 13 13 12 12 12 12 12 11
12 12 12 12 12 13 13 13 13 13 13 13 13 13 13 13 13 14 13 13 13 13 13 13 13 13 12 12 12 12 12 12 12 12 12 12 12 12 12 11 11 11 11
11 12 12 12 12 12 12 12 12 12 13 13 13 13 13 13 13 13 13 13 13 13 13 13 13 12 12 12 12 12 12 12 11 11 11 11 11 11 11 11 11 11 10
11 11 12 12 12 12 12 12 12 12 12 12 12 12 12 12 12 13 13 13 13 12 12 12 12 12 12 12 12 12 11 11 11 11 10 10 10 10 10 10 10 10 10

GEFSSE_850_meantemp_126.txt.gz
Temperature
20 21 20 19 19 18 18 18 18 17 17 17 17 17 17 17 17 17 17 17 17 17 17 16 16 16 16 16 16 16 16 16 16 16 16 16 16 16 16 16 16 16 15
21 20 20 19 18 18 18 18 17 17 17 17 17 17 17 17 17 17 17 17 17 17 16 16 16 16 16 16 16 16 16 16 16 16 16 16 16 16 16 16 16 16 16
20 20 19 19 18 18 17 17 17 17 17 17 17 17 17 16 16 16 16 16 16 16 16 16 16 16 16 16 16 16 16 16 15 15 15 16 16 16 16 16 16 16 16
19 19 19 18 18 17 17 17 17 17 17 17 16 16 16 16 16 16 16 16 16 16 16 16 16 16 16 16 16 16 16 15 15 15 15 16 16 16 16 16 16 16 16
18 18 18 18 17 17 17 17 17 17 16 16 16 16 16 16 16 16 16 16 16 16 16 16 16 16 16 16 16 16 15 15 15 15 15 16 16 16 16 16 16 16 16
17 18 18 18 17 17 17 17 17 16 16 16 16 16 16 16 16 16 16 16 16 16 16 16 16 16 16 16 16 16 15 15 15 15 15 16 16 16 16 16 16 16 16
17 17 17 17 17 17 17 17 16 16 16 16 16 16 16 16 16 16 16 16 16 16 16 16 16 16 16 16 16 16 15 15 15 15 16 16 16 16 16 16 16 16 15
17 17 17 17 17 17 16 16 16 16 16 16 16 16 16 16 16 16 16 16 16 16 16 16 16 16 16 16 16 16 15 15 15 15 16 16 16 16 16 16 16 15 15
17 17 17 16 16 16 16 16 16 16 16 16 16 16 15 15 16 16 16 16 16 16 16 16 16 16 16 16 16 16 15 15 15 15 16 16 16 16 16 15 15 15 15
16 16 16 16 16 16 16 16 16 16 16 16 15 15 15 15 15 15 15 16 15 16 16 16 16 16 16 16 16 15 15 15 15 15 15 16 16 16 15 15 15 15 15
15 15 15 16 16 16 16 16 15 15 15 15 15 15 15 15 15 15 15 15 15 15 16 16 16 16 16 16 16 15 15 15 15 15 15 15 15 15 15 15 15 15 15
15 15 15 15 15 15 15 15 15 15 15 15 15 15 15 15 15 15 15 15 15 15 15 16 16 16 16 16 15 15 15 14 15 15 15 15 15 15 15 15 15 15 15
15 15 14 14 14 15 15 15 15 15 15 15 15 15 15 15 14 15 15 15 15 15 15 15 15 16 15 15 15 15 15 14 14 15 15 15 15 15 15 15 15 14 14
14 14 14 14 14 14 15 15 15 15 15 15 15 14 14 14 14 14 15 15 15 15 15 15 15 15 15 15 15 15 14 14 14 15 15 15 15 15 15 15 14 14 14
14 14 14 14 14 14 14 14 14 14 14 14 14 14 14 14 14 14 15 15 15 15 15 15 15 15 15 15 14 14 14 14 14 14 15 15 15 15 15 14 14 14 14
13 14 14 14 14 14 14 14 14 14 14 14 14 14 14 14 14 14 14 14 14 14 15 15 15 14 14 14 14 14 14 14 14 14 14 14 14 14 14 14 14 14 14
13 13 14 14 14 14 14 14 14 14 14 14 14 14 14 14 14 14 14 14 14 14 14 14 14 14 14 14 14 14 14 14 14 14 14 14 14 14 14 14 14 14 14
13 13 13 13 13 13 13 14 14 14 14 14 14 14 14 14 14 14 14 14 14 14 14 14 14 14 14 14 14 14 14 14 14 14 14 14 14 14 14 14 14 14 13
12 13 13 13 13 13 13 13 14 14 14 14 14 14 14 14 14 14 14 14 14 14 14 14 14 14 14 14 14 14 14 14 14 14 14 14 14 14 14 14 13 13 13
12 13 13 13 13 13 13 13 13 13 13 14 14 14 14 14 14 14 14 14 14 14 14 14 14 14 14 14 14 14 14 14 14 14 14 14 14 14 14 14 13 13 13
12 12 12 12 12 13 13 13 13 13 13 13 14 14 14 14 14 14 14 14 14 14 14 14 14 13 13 13 13 13 13 13 14 14 14 14 14 13 13 13 13 13 13
12 12 12 12 12 12 13 13 13 13 13 13 14 13 14 14 14 14 14 14 14 14 14 13 13 13 13 13 13 13 13 13 13 13 14 14 13 13 13 13 13 12 12
11 12 12 12 12 12 12 12 13 13 13 13 13 13 13 13 14 13 13 14 13 13 13 13 13 13 13 13 13 13 13 13 13 13 13 13 13 13 13 13 13 12 12
11 11 11 12 12 12 12 12 12 12 12 12 13 13 13 13 13 13 13 13 13 13 13 13 13 13 13 13 13 13 13 13 13 12 12 13 12 12 12 12 12 12 11
10 11 11 11 11 12 12 12 12 12 12 12 12 12 12 12 12 12 12 12 13 13 13 13 13 13 13 13 13 13 13 13 12 12 12 12 12 12 12 11 11 11 11
10 11 11 11 11 11 11 11 11 12 12 12 12 12 12 12 12 12 12 12 12 12 12 12 12 12 12 12 12 12 12 12 12 12 12 11 11 11 11 11 11 11 11

GEFSSE_850_meantemp_132.txt.gz
Temperature
20 20 19 19 19 19 19 19 18 18 18 18 18 17 17 17 17 17 17 17 17 16 16 16 16 16 16 16 16 16 16 16 16 16 16 16 16 16 16 16 16 16 15
20 20 19 19 19 19 19 19 18 18 18 18 17 17 17 17 17 17 17 17 17 16 16 16 16 16 16 16 16 16 16 16 16 16 16 16 16 16 16 16 16 15 15
20 19 19 18 18 18 18 18 18 18 18 17 17 17 17 17 17 17 17 17 17 17 16 16 16 16 16 16 16 16 16 16 16 16 16 16 16 16 16 16 15 15 15
19 19 18 18 18 18 18 18 18 17 17 17 17 17 17 17 17 17 17 17 17 17 16 16 16 16 16 16 16 16 16 16 16 16 16 16 15 15 15 15 15 15 15
19 18 18 18 18 18 17 17 17 17 17 17 17 17 16 16 16 17 17 17 17 17 16 16 16 16 16 16 16 16 16 16 16 16 16 16 16 15 15 15 15 15 15
18 18 18 17 17 17 17 17 17 17 17 17 17 17 16 16 16 16 17 17 16 16 16 16 16 16 16 16 16 16 16 16 16 16 16 16 16 16 15 15 15 15 15
17 17 17 17 17 17 17 17 17 17 17 17 16 16 16 16 16 16 16 16 16 16 16 16 16 16 16 16 16 16 16 16 16 16 16 16 16 16 15 15 15 15 15
17 16 16 16 17 17 17 16 16 16 16 16 16 16 16 16 16 16 16 16 16 16 16 16 16 16 16 16 16 16 16 16 16 16 16 16 16 16 16 15 15 15 15
16 16 16 16 16 16 16 16 16 16 16 16 16 16 16 16 16 16 16 16 16 16 16 16 16 16 16 16 16 16 16 16 16 16 16 16 16 16 15 15 15 15 15
15 15 15 16 16 16 16 16 16 16 16 16 16 16 16 16 16 16 16 16 16 16 16 16 16 16 16 16 15 16 16 16 16 16 16 16 15 15 15 15 15 15 15
14 15 15 15 15 15 15 15 15 16 16 15 15 15 15 15 15 15 15 15 15 16 16 16 16 16 16 15 15 15 15 15 15 15 15 15 15 15 15 15 15 15 15
14 14 14 15 15 15 15 15 15 15 15 15 15 15 15 15 15 15 15 15 15 15 16 16 16 16 15 15 15 15 15 15 15 15 15 15 15 15 15 15 15 15 15
14 14 14 14 14 15 15 15 15 15 15 15 15 15 15 15 15 15 15 15 15 15 15 15 15 15 15 15 15 15 15 15 15 15 15 15 15 15 15 15 15 15 15
13 13 13 13 14 14 14 14 14 14 15 15 15 15 15 15 15 15 15 15 15 15 15 15 15 15 15 15 15 15 15 15 15 15 15 15 15 15 15 15 15 15 14
13 13 13 13 14 14 14 14 14 14 14 15 15 15 15 15 15 15 14 14 15 15 15 15 15 15 15 15 15 15 15 15 15 15 15 15 15 15 15 15 15 14 14
12 13 13 13 13 13 13 14 14 14 14 14 14 14 14 14 14 14 14 14 14 15 15 15 15 15 15 15 15 15 15 15 15 15 15 15 15 15 15 14 14 14 14
12 12 13 13 13 13 13 13 14 14 14 14 14 14 14 14 14 14 14 14 14 14 14 15 14 15 14 14 14 14 14 14 14 15 15 15 15 15 14 14 14 14 14
12 12 12 12 13 13 13 13 13 14 14 14 14 14 14 14 14 14 14 14 14 14 14 14 14 14 14 14 14 14 14 14 14 14 14 14 14 14 14 14 14 14 14
12 12 12 12 12 13 13 13 13 13 13 13 13 14 14 14 14 14 14 14 14 14 14 14 14 14 14 14 14 14 14 14 14 14 14 14 14 14 14 14 14 14 14
12 12 12 12 12 12 12 12 13 13 13 13 13 13 14 14 14 14 14 14 14 14 14 14 14 14 14 14 14 14 14 14 14 14 14 14 14 14 14 14 14 14 13
11 11 11 12 12 12 12 12 12 12 13 13 13 13 13 13 14 13 13 13 14 14 14 14 14 13 13 13 13 13 13 13 13 14 14 14 14 14 14 14 13 13 13
11 11 11 12 12 12 12 12 12 12 12 13 13 13 13 13 13 13 13 13 13 13 13 13 13 13 13 13 13 12 12 13 13 13 13 13 13 13 13 13 13 13 13
11 11 11 11 11 11 11 12 12 11 12 12 12 12 12 13 13 13 13 13 13 13 13 13 13 13 13 13 13 12 12 12 12 13 13 13 13 13 13 13 13 13 13
10 10 10 11 11 11 11 11 11 11 12 12 12 12 12 12 12 12 12 13 13 13 13 13 13 13 13 12 12 12 13 12 12 12 12 12 12 12 12 12 12 12 12
10 10 10 10 10 10 11 11 11 11 11 11 12 12 12 12 12 12 12 12 12 12 13 13 12 12 12 12 12 12 12 12 12 12 11 12 12 12 12 12 12 12 12
9 9 9 10 10 10 10 10 10 10 11 11 11 11 11 11 11 12 12 12 12 12 12 12 12 12 12 12 12 12 12 12 12 12 12 12 11 11 11 11 11 11 11